Regional Weather Roundup
Issued by NWS

Home | Current Version | Previous Version | Text Only | Print | Product List | Glossary On
Versions: 1 2 3 4 5 6 7 8 9 10 11 12 13 14 15 16 17 18 19 20 21 22 23 24 25 26 27 28 29 30 31 32 33 34 35 36 37 38 39 40 41 42 43 44 45 46 47 48 49 50
049
ASUS43 KIND 290559
RWRIN

WEATHER ROUNDUP FOR INDIANA
NATIONAL WEATHER SERVICE INDIANAPOLIS IN
200 AM EDT FRI JUL 29 2016

NOTE: "FAIR" INDICATES FEW OR NO CLOUDS BELOW 12,000 FEET WITH NO
SIGNIFICANT WEATHER AND/OR OBSTRUCTIONS TO VISIBILITY.

* - STATION DOES NOT REPORT WEATHER SUCH AS PRECIPITATION OR FOG.

+ - STATION NOT QUALITY CONTROLLED BY THE NATIONAL WEATHER SERVICE.
    USE DATA WITH CAUTION...ESPECIALLY DEWPOINT AND RELATIVE
    HUMIDITY OBSERVATIONS.

INZ001>003-010>013-019-020-290700-
NORTHWEST INDIANA

CITY           SKY/WX    TMP DP  RH WIND       PRES   REMARKS
KNOX *+        PTCLDY    64  63  94 CALM      29.91F
MONTICELLO +   CLEAR     69  65  85 CALM      29.90F
6HR MIN TEMP:  69; 6HR MAX TEMP:  83;

RENSSELAER +   CLEAR     68  66  94 CALM      29.91S FOG

$$

LMZ046-743>745-290700-
SOUTHERN LAKE MICHIGAN

STATION/POSITION TIME  TEMP    WIND        PRES    WAVE
                       AIR SEA DIR/SP/G            HT
                 (UTC) (F)     (DEG/KT/KT) (MB)    (FT)
BURNS HARBOR     0501   74     100/  5/  7 1013.5R
MICHIGAN CITY    0500   71      CALM  /  1   N/A
5NW MICH CITY    0500   74 77  150/  2/  4   N/A     2

$$

INZ004-005-014>016-021>024-290700-
NORTH CENTRAL INDIANA

CITY           SKY/WX    TMP DP  RH WIND       PRES   REMARKS
GOSHEN         PTCLDY    71  67  87 NE3       29.92S
6HR MIN TEMP:  70; 6HR MAX TEMP:  72;

SOUTH BEND     CLEAR     67  66  97 CALM      29.92F
6HR MIN TEMP:  66; 6HR MAX TEMP:  71;

WARSAW +       CLEAR     68  68 100 CALM      29.92F

$$

INZ006>009-017-018-025>027-290700-
NORTHEAST INDIANA

CITY           SKY/WX    TMP DP  RH WIND       PRES   REMARKS
ANGOLA *+        N/A     70  63  78 CALM      29.93S
FORT WAYNE     MOCLDY    71  67  87 N5        29.91F THUNDER
6HR MIN TEMP:  71; 6HR MAX TEMP:  79; 6HR PCP:  0.08;


$$

INZ028-029-035-036-043>045-051>053-290700-
WEST CENTRAL INDIANA

CITY           SKY/WX    TMP DP  RH WIND       PRES   REMARKS
CRAWFORDSVL +  CLEAR     65  65 100 CALM      29.91F FOG
6HR MIN TEMP:  65; 6HR MAX TEMP:  79;

GREENCASTLE +    N/A     68  68 100 CALM      29.92F FOG
LAFAYETTE      PTCLDY    69  69 100 NW3       29.90F FOG
6HR MIN TEMP:  69; 6HR MAX TEMP:  83;

TERRE HAUTE    CLEAR     70  68  93 CALM      29.91F
6HR MIN TEMP:  70; 6HR MAX TEMP:  77; 6HR PCP:  0.02;


$$

INZ030>032-037>040-046>048-054>057-064-065-290700-
CENTRAL INDIANA

CITY           SKY/WX    TMP DP  RH WIND       PRES   REMARKS
INDIANAPOLIS   MOCLDY    73  69  87 W3        29.92S
6HR MIN TEMP:  72; 6HR MAX TEMP:  81;

-EAGLE CREEK   CLEAR     74  69  85 CALM      29.91F
6HR MIN TEMP:  74; 6HR MAX TEMP:  84;

KOKOMO *+      CLEAR     66  61  82 CALM      29.91F
6HR MIN TEMP:  66; 6HR MAX TEMP:  82;

SHELBYVILLE    PTCLDY    69  66  90 NE5       29.91F FOG
6HR MIN TEMP:  68; 6HR MAX TEMP:  74; 6HR PCP:  0.15;


$$

INZ033-034-041-042-049-050-058-059-290700-
EAST CENTRAL INDIANA

CITY           SKY/WX    TMP DP  RH WIND       PRES   REMARKS
MUNCIE         CLEAR     74  67  78 SW3       29.92S
6HR MIN TEMP:  73; 6HR MAX TEMP:  83;


$$

INZ060-061-067>069-081>083-085>088-290700-
SOUTHWEST INDIANA

CITY           SKY/WX    TMP DP  RH WIND       PRES   REMARKS
EVANSVILLE     PTCLDY    71  70  96 CALM      29.91S
6HR MIN TEMP:  71; 6HR MAX TEMP:  84; 6HR PCP:  0.19;

HUNTINGBURG *+ CLOUDY    70  66  88 CALM      29.92R
6HR MIN TEMP:  70; 6HR MAX TEMP:  82;

WASHINGTON +   CLEAR     70  70 100 MISG      29.91S
6HR MIN TEMP:  70; 6HR MAX TEMP:  74; 6HR PCP:  0.01;


$$

INZ062-063-066-070>080-084-089>092-290700-
SOUTH CENTRAL AND SOUTHEAST INDIANA

CITY           SKY/WX    TMP DP  RH WIND       PRES   REMARKS
BLOOMINGTON    CLEAR     67  65  93 CALM      29.92F FOG
6HR MIN TEMP:  67; 6HR MAX TEMP:  75;

MADISON *+     CLEAR     70  68  94 CALM      29.93F
SEYMOUR +      FOG       70  70 100 CALM      29.91F VSB 1/2

$$





USA.gov is the U.S. government's official web portal to all federal, state and local government web resources and services.